This is the latest recevied weather packets stored in our database for station/object IW3HBX-13. If no packets are shown the sender has not sent any weather packets the latest 10 day(s).
| Time | Temp. | Humidity | Pressure | Rain* | Wind** | Luminosity | Snow |
|---|---|---|---|---|---|---|---|
| 1777567327 | 17.78° C | 32% | 1024.3 hPa | 0 mm | - | 108 W/m² | - |
| 1777566968 | 17.78° C | 32% | 1024.3 hPa | 0 mm | - | 121 W/m² | - |
| 1777566607 | 17.78° C | 33% | 1024.2 hPa | 0 mm | - | 136 W/m² | - |
| 1777566247 | 17.22° C | 33% | 1024.3 hPa | 0 mm | - | 150 W/m² | - |
| 1777565890 | 17.22° C | 34% | 1024.3 hPa | 0 mm | - | 168 W/m² | - |
| 1777565530 | 17.22° C | 34% | 1024.2 hPa | 0 mm | - | 186 W/m² | - |
| 1777565168 | 17.22° C | 34% | 1024.3 hPa | 0 mm | - | 205 W/m² | - |
| 1777564447 | 17.78° C | 35% | 1024.3 hPa | 0 mm | - | 240 W/m² | - |
| 1777564087 | 17.78° C | 36% | 1024.3 hPa | 0 mm | - | 260 W/m² | - |
| 1777563727 | 17.78° C | 35% | 1024.3 hPa | 0 mm | - | 279 W/m² | - |
| 1777563367 | 17.22° C | 36% | 1024.3 hPa | 0 mm | - | 296 W/m² | - |
| 1777563009 | 17.22° C | 36% | 1024.3 hPa | 0 mm | - | 317 W/m² | - |
| 1777562649 | 17.78° C | 36% | 1024.3 hPa | 0 mm | - | 333 W/m² | - |
| 1777562289 | 17.78° C | 36% | 1024.3 hPa | 0 mm | - | 353 W/m² | - |
| 1777561927 | 17.78° C | 36% | 1024.3 hPa | 0 mm | - | 374 W/m² | - |
| 1777561567 | 17.22° C | 37% | 1024.2 hPa | 0 mm | - | 391 W/m² | - |
| 1777560847 | 17.78° C | 37% | 1024.2 hPa | 0 mm | - | 430 W/m² | - |
| 1777560488 | 17.78° C | 37% | 1024.2 hPa | 0 mm | - | 448 W/m² | - |
| 1777560127 | 18.33° C | 37% | 1024.2 hPa | 0 mm | - | 464 W/m² | - |
| 1777559767 | 17.78° C | 36% | 1024.3 hPa | 0 mm | - | 484 W/m² | - |
| 1777559407 | 17.78° C | 38% | 1024.2 hPa | 0 mm | - | 502 W/m² | - |
| 1777559048 | 18.89° C | 37% | 1024.2 hPa | 0 mm | - | 522 W/m² | - |
| 1777558689 | 18.33° C | 36% | 1024.2 hPa | 0 mm | - | 535 W/m² | - |
| 1777558327 | 17.22° C | 37% | 1024.2 hPa | 0 mm | - | 551 W/m² | - |
| 1777557967 | 17.22° C | 38% | 1024.2 hPa | 0 mm | - | 567 W/m² | - |
* Rain latest hour (hover to see other rain measurements)
** Current wind speed in m/s (hover to see current wind gust speed)